Weather History for KMQB - April, 2013

Change the Weather History Date:

Friday, April 5, 2013

  Actual Average (KBRL) Record (KBRL)
Temperature  
Mean Temperature 46 °F 50 °F  
Max Temperature 61 °F 61 °F 83 °F (1929)
Min Temperature 32 °F 39 °F 13 °F (1920)
Degree Days  
Heating Degree Days 19 15  
Month to date heating degree days 80  
Since 1 July heating degree days 5186  
Cooling Degree Days 0 0  
Month to date cooling degree days 0  
Year to date cooling degree days 2  
Moisture  
Dew Point 27 °F    
Average Humidity 51    
Maximum Humidity 88    
Minimum Humidity 24    
Precipitation  
Precipitation 0.00 in 0.11 in 2.62 in (1964)
Month to date precipitation 0.50  
Year to date precipitation 6.15  
Sea Level Pressure  
Sea Level Pressure 30.13 in    
Wind  
Wind Speed 8 mph (ENE)    
Max Wind Speed 15 mph    
Max Gust Speed 20 mph    
Visibility 10 miles    
Events      
T = Trace of Precipitation, MM = Missing Value Source: NWS Daily Summary

Daily Weather History Graph

Daily Weather History Graph

Search for Another Location

Airport or City:

Trip Planner

Search our weather history database for the weather conditions in past years. The results will help you decide how hot, cold, wet, or windy it might be!

Date:

Astronomy

Apr. 05, 2013 Rise Set
Actual Time 6:39 AM CDT 7:31 PM CDT
Civil Twilight 6:11 AM CDT 7:59 PM CDT
Nautical Twilight 5:38 AM CDT 8:32 PM CDT
Astronomical Twilight 5:04 AM CDT 9:06 PM CDT
Moon 3:47 AM CDT 2:54 PM CDT
Length of Visible Light 13h 47m
Length of Day
12h 52m
Waning Crescent, 23% of the Moon is Illuminated
Apr 5
Waning Crescent
Apr 10
New
Apr 18
First Quarter
Apr 25
Full
May 2
Last Quarter

Hourly Weather History & Observations

Time (CDT) Temp. Windchill Dew Point Humidity Pressure Visibility Wind Dir Wind Speed Gust Speed Precip Events Conditions
12:15 AM 40.1 °F 34.1 °F 27.0 °F 59% 30.07 in 10.0 mi NNW 9.2 mph - N/A   Clear
12:35 AM 38.8 °F 33.2 °F 29.1 °F 68% 30.08 in 10.0 mi North 8.1 mph - N/A   Clear
12:55 AM 39.4 °F 34.5 °F 30.2 °F 70% 30.08 in 10.0 mi North 6.9 mph - N/A   Clear
1:15 AM 39.2 °F 34.2 °F 31.1 °F 73% 30.09 in 10.0 mi NNW 6.9 mph - N/A   Clear
1:35 AM 39.6 °F 34.0 °F 31.8 °F 74% 30.09 in 10.0 mi NNW 8.1 mph - N/A   Clear
1:55 AM 41.0 °F 35.8 °F 33.6 °F 75% 30.09 in 10.0 mi North 8.1 mph - N/A   Clear
2:15 AM 40.3 °F 35.5 °F 33.6 °F 77% 30.09 in 10.0 mi North 6.9 mph - N/A   Clear
2:35 AM 39.0 °F 34.0 °F 32.9 °F 79% 30.10 in 10.0 mi NNW 6.9 mph - N/A   Clear
2:55 AM 38.5 °F 32.7 °F 32.9 °F 80% 30.10 in 10.0 mi NNW 8.1 mph - N/A   Clear
3:15 AM 37.6 °F 31.6 °F 32.2 °F 81% 30.10 in 10.0 mi NNW 8.1 mph - N/A   Clear
3:35 AM 36.9 °F 30.7 °F 32.0 °F 83% 30.11 in 10.0 mi North 8.1 mph - N/A   Clear
3:55 AM 35.8 °F 28.8 °F 31.6 °F 85% 30.12 in 10.0 mi NNW 9.2 mph - N/A   Clear
4:15 AM 34.9 °F 28.3 °F 31.1 °F 86% 30.12 in 10.0 mi NNW 8.1 mph - N/A   Clear
4:35 AM 35.6 °F 28.0 °F 30.2 °F 81% 30.13 in 10.0 mi NNW 10.4 mph - N/A   Clear
4:55 AM 34.9 °F 29.0 °F 30.9 °F 85% 30.13 in 10.0 mi NNW 6.9 mph - N/A   Clear
5:15 AM 34.0 °F 28.0 °F 30.2 °F 86% 30.14 in 10.0 mi NNW 6.9 mph - N/A   Clear
5:35 AM 33.4 °F 26.6 °F 30.0 °F 87% 30.15 in 10.0 mi NNW 8.1 mph - N/A   Clear
5:55 AM 33.1 °F 26.9 °F 29.7 °F 87% 30.16 in 10.0 mi North 6.9 mph - N/A   Clear
6:15 AM 32.0 °F 25.6 °F 28.8 °F 88% 30.16 in 10.0 mi NNW 6.9 mph - N/A   Clear
6:35 AM 32.0 °F 25.6 °F 28.8 °F 88% 30.17 in 10.0 mi North 6.9 mph - N/A   Clear
6:55 AM 32.0 °F 24.8 °F 28.8 °F 88% 30.18 in 7.0 mi NNW 8.1 mph - N/A   Clear
7:15 AM 33.1 °F 25.5 °F 29.8 °F 88% 30.18 in 7.0 mi North 9.2 mph - N/A   Clear
7:35 AM 35.6 °F 29.2 °F 30.9 °F 83% 30.19 in 10.0 mi North 8.1 mph - N/A   Clear
7:55 AM 37.6 °F 31.6 °F 31.3 °F 78% 30.19 in 10.0 mi North 8.1 mph - N/A   Clear
8:15 AM 39.6 °F 32.5 °F 31.5 °F 73% 30.20 in 10.0 mi NNE 11.5 mph - N/A   Clear
8:35 AM 41.2 °F 34.1 °F 30.9 °F 67% 30.20 in 10.0 mi NNE 12.7 mph - N/A   Clear
8:55 AM 42.4 °F 35.3 °F 30.7 °F 63% 30.21 in 10.0 mi NE 13.8 mph - N/A   Clear
9:15 AM 43.2 °F 36.2 °F 30.7 °F 62% 30.21 in 10.0 mi NE 13.8 mph - N/A   Clear
9:35 AM 44.8 °F 39.4 °F 31.3 °F 59% 30.22 in 10.0 mi ENE 10.4 mph - N/A   Clear
9:55 AM 46.8 °F - 31.1 °F 55% 30.22 in 10.0 mi ENE 11.5 mph - N/A   Clear
10:15 AM 47.3 °F - 30.6 °F 52% 30.22 in 10.0 mi ENE 11.5 mph - N/A   Scattered Clouds
10:35 AM 48.0 °F - 30.0 °F 50% 30.22 in 10.0 mi East 10.4 mph - N/A   Scattered Clouds
10:55 AM 49.5 °F - 30.0 °F 47% 30.22 in 10.0 mi ENE 8.1 mph - N/A   Scattered Clouds
11:15 AM 50.4 °F - 28.8 °F 43% 30.21 in 10.0 mi East 10.4 mph - N/A   Scattered Clouds
11:35 AM 51.8 °F - 28.4 °F 41% 30.21 in 10.0 mi East 10.4 mph - N/A   Scattered Clouds
11:55 AM 52.5 °F - 27.0 °F 37% 30.21 in 10.0 mi NNE 8.1 mph - N/A   Clear
12:15 PM 52.7 °F - 25.9 °F 35% 30.21 in 10.0 mi Calm Calm - N/A   Clear
12:35 PM 53.8 °F - 26.2 °F 35% 30.20 in 10.0 mi NE 6.9 mph - N/A   Clear
12:55 PM 54.7 °F - 24.3 °F 31% 30.18 in 10.0 mi NE 6.9 mph - N/A   Clear
1:15 PM 55.2 °F - 23.0 °F 29% 30.17 in 10.0 mi NNE 3.5 mph - N/A   Clear
1:35 PM 55.9 °F - 24.6 °F 30% 30.16 in 10.0 mi ENE 4.6 mph - N/A   Clear
1:55 PM 57.2 °F - 22.6 °F 26% 30.16 in 10.0 mi SE 6.9 mph - N/A   Clear
2:15 PM 57.9 °F - 22.8 °F 26% 30.16 in 10.0 mi WSW 3.5 mph - N/A   Clear
2:35 PM 57.2 °F - 23.0 °F 27% 30.15 in 10.0 mi Calm Calm - N/A   Clear
2:55 PM 58.3 °F - 22.3 °F 25% 30.13 in 10.0 mi Calm Calm - N/A   Clear
3:15 PM 59.2 °F - 22.8 °F 25% 30.12 in 10.0 mi East 6.9 mph - N/A   Scattered Clouds
3:35 PM 58.8 °F - 22.5 °F 25% 30.11 in 10.0 mi East 8.1 mph - N/A   Mostly Cloudy
3:55 PM 59.2 °F - 23.2 °F 25% 30.10 in 10.0 mi ESE 3.5 mph - N/A   Scattered Clouds
4:15 PM 59.9 °F - 23.2 °F 24% 30.10 in 10.0 mi SE 5.8 mph - N/A   Clear
4:35 PM 60.1 °F - 24.1 °F 25% 30.10 in 10.0 mi SE 8.1 mph - N/A   Clear
4:55 PM 60.6 °F - 24.1 °F 25% 30.10 in 10.0 mi South 3.5 mph - N/A   Clear
5:15 PM 60.6 °F - 24.3 °F 25% 30.10 in 10.0 mi SSE 4.6 mph - N/A   Clear
5:35 PM 60.8 °F - 24.4 °F 25% 30.10 in 10.0 mi South 8.1 mph - N/A   Clear
5:55 PM 60.6 °F - 24.6 °F 25% 30.09 in 10.0 mi ESE 5.8 mph - N/A   Clear
6:15 PM 59.9 °F - 24.8 °F 26% 30.08 in 10.0 mi SE 6.9 mph - N/A   Clear
6:35 PM 59.4 °F - 24.4 °F 26% 30.08 in 10.0 mi ESE 9.2 mph - N/A   Clear
6:55 PM 59.0 °F - 23.7 °F 26% 30.08 in 10.0 mi SE 11.5 mph - N/A   Clear
7:15 PM 57.0 °F - 24.1 °F 28% 30.08 in 10.0 mi SE 9.2 mph - N/A   Clear
7:35 PM 54.7 °F - 23.7 °F 30% 30.07 in 10.0 mi ESE 9.2 mph - N/A   Clear
7:55 PM 54.1 °F - 24.3 °F 31% 30.07 in 10.0 mi ESE 10.4 mph - N/A   Clear
8:15 PM 53.8 °F - 23.9 °F 31% 30.07 in 10.0 mi ESE 10.4 mph - N/A   Clear
8:35 PM 53.6 °F - 24.8 °F 33% 30.07 in 10.0 mi SE 10.4 mph - N/A   Clear
8:55 PM 51.8 °F - 24.3 °F 34% 30.06 in 10.0 mi SE 10.4 mph - N/A   Clear
9:15 PM 51.3 °F - 24.4 °F 35% 30.06 in 10.0 mi SE 9.2 mph - N/A   Clear
9:35 PM 51.8 °F - 24.6 °F 35% 30.06 in 10.0 mi ESE 10.4 mph - N/A   Clear
9:55 PM 51.8 °F - 24.8 °F 35% 30.05 in 10.0 mi ESE 11.5 mph - N/A   Scattered Clouds
10:15 PM 51.8 °F - 25.0 °F 35% 30.05 in 10.0 mi ESE 12.7 mph 18.4 mph N/A   Clear
10:35 PM 51.8 °F - 25.3 °F 36% 30.05 in 10.0 mi SE 13.8 mph - N/A   Scattered Clouds
10:55 PM 51.3 °F - 24.8 °F 36% 30.05 in 10.0 mi SE 15.0 mph - N/A   Mostly Cloudy
11:15 PM 50.5 °F - 24.6 °F 36% 30.04 in 10.0 mi SE 15.0 mph - N/A   Mostly Cloudy
11:35 PM 49.8 °F - 24.4 °F 37% 30.04 in 10.0 mi SE 15.0 mph 19.6 mph N/A   Scattered Clouds
11:55 PM 49.1 °F - 23.7 °F 37% 30.04 in 10.0 mi SE 15.0 mph - N/A   Scattered Clouds